Track HAIYANG 2A now! 10-day predictions HAIYANG 2A is classified as:
1 37781U 11043A 26257.61077131 .00000120 00000-0 18086-3 0 9992 2 37781 99.3446 258.0902 0003622 123.4993 236.6501 13.71464640758923